Tracking 29892 objects as of 21-Nov-2024
HD Live streaming from Space Station
objects crossing your sky now

NOAA 16 DEB

Track NOAA 16 DEB now!
10-day predictions


NORAD ID: 41509
Int'l Code: 2000-055MH
Perigee: 801.2 km
Apogee: 828.8 km
Inclination: 98.8 °
Period: 101.0 minutes
Semi major axis: 7185 km
RCS: Unknown
Launch date: September 21, 2000
Source: United States (US)
Launch site: AIR FORCE WESTERN TEST RANGE (AFWTR)

Note: This is SATELLITE DEBRIS
Your satellite tracking list
Your tracking list is empty




NASA's NSSDC Master Catalog

Two Line Element Set (TLE):
1 41509U 00055MH  24325.17892291  .00009125  00000-0  38910-2 0  9994
2 41509  98.7732  51.0076 0019201 206.1882 153.8328 14.25196071447793
Source of the keplerian elements: AFSPC